Stations météo

réclame
Mon MeteoGroup
Charleroi/Gosselies, Belgique (6449): Température de l'air & dewpoint: 18.11.2017 15:00:00 - 24.11.2017 15:00:00 (CET)Charleroi/Gosselies, Belgique (6449): Vitesse du vent & gusts: 18.11.2017 15:00:00 - 24.11.2017 15:00:00 (CET)Charleroi/Gosselies, Belgique (6449): Direction du vent: 18.11.2017 15:00:00 - 24.11.2017 15:00:00 (CET)Charleroi/Gosselies, Belgique (6449): reduced air pressure: 18.11.2017 15:00:00 - 24.11.2017 15:00:00 (CET)Charleroi/Gosselies, Belgique (6449): visibility: 18.11.2017 15:00:00 - 24.11.2017 15:00:00 (CET)
Date & Time tt [°C] td [°C] ff [km/h] ff [knt] fx [km/h] fx [knt] dd ppp [hPa] vv [km]
24.11.2017 15:00:00 8,9 4,0 4 2 14 8 - 1012,0 10
24.11.2017 14:00:00 8,8 5,6 9 5 18 10 WSW 1012,2 10
24.11.2017 13:00:00 8,1 4,8 11 6 - - W 1012,0 10
24.11.2017 12:00:00 7,8 6,2 11 6 18 10 WSW 1012,0 10
24.11.2017 11:00:00 7,2 6,0 9 5 18 10 WSW 1011,3 10
24.11.2017 10:00:00 6,6 5,8 13 7 - - W 1010,7 10
24.11.2017 09:00:00 6,4 5,5 5 3 18 10 WNW 1009,8 10
24.11.2017 08:00:00 6,8 6,3 4 2 18 10 W 1008,2 7
24.11.2017 07:00:00 6,8 5,8 2 1 - - - 1007,7 5
24.11.2017 06:00:00 7,2 6,6 9 5 29 16 NNW 1007,1 3,5
24.11.2017 05:00:00 7,9 7,3 9 5 14 8 NNW 1006,2 3,0
24.11.2017 04:00:00 7,9 7,5 5 3 - - SW 1007,0 3,0
24.11.2017 03:00:00 8,3 7,4 15 8 22 12 S 1007,8 5
24.11.2017 02:00:00 8,6 7,7 11 6 14 8 S 1008,5 6
24.11.2017 01:00:00 9,2 6,8 8 4 - - S 1009,1 10
24.11.2017 00:00:00 9,2 7,1 11 6 25 14 S 1009,9 10
23.11.2017 23:00:00 9,3 7,4 18 10 29 16 SSW 1010,3 10
23.11.2017 22:00:00 9,5 8,7 16 9 - - SSW 1010,6 8
23.11.2017 21:00:00 9,5 7,1 11 6 22 12 SSW 1010,1 10
23.11.2017 20:00:00 9,3 7,6 11 6 22 12 S 1009,7 10
23.11.2017 19:00:00 9,0 7,5 15 8 - - SW 1009,4 10
23.11.2017 18:00:00 9,9 7,2 18 10 36 19 SW 1008,4 10
23.11.2017 17:00:00 10,7 8,9 18 10 29 16 WSW 1007,3 10
23.11.2017 16:00:00 10,8 9,5 16 9 - - W 1006,4 10
23.11.2017 15:00:00 12,4 10,4 31 17 47 25 SW 1004,9 10
23.11.2017 14:00:00 12,5 10,8 31 17 58 31 SSW 1004,2 10
23.11.2017 13:00:00 14,1 8,7 37 20 - - SSW 1003,4 10
23.11.2017 12:00:00 12,9 8,8 35 19 54 29 SSW 1003,3 10
23.11.2017 11:00:00 12,7 7,9 34 18 61 33 SSW 1002,6 10
23.11.2017 10:00:00 12,3 6,5 35 19 - - SSW 1001,4 10
23.11.2017 09:00:00 12,1 5,7 41 22 61 33 SSW 1000,5 10
23.11.2017 08:00:00 12,0 4,7 39 21 61 33 SSW 999,3 10
23.11.2017 07:00:00 11,8 4,3 35 19 - - S 999,1 10
23.11.2017 06:00:00 11,9 4,1 31 17 54 29 S 999,3 10
23.11.2017 05:00:00 11,9 3,8 29 16 50 27 S 999,8 10
23.11.2017 04:00:00 11,5 3,5 31 17 - - S 1000,4 10
23.11.2017 03:00:00 11,4 2,7 28 15 50 27 S 1000,9 10
23.11.2017 02:00:00 11,8 2,5 28 15 43 23 S 1001,0 10
23.11.2017 01:00:00 11,3 2,6 26 14 - - S 1001,9 10
23.11.2017 00:00:00 11,7 2,3 31 17 54 29 SSW 1002,5 10
22.11.2017 23:00:00 12,2 2,0 34 18 54 29 S 1002,7 10
22.11.2017 22:00:00 12,1 2,2 28 15 - - S 1002,8 10
22.11.2017 21:00:00 11,6 2,1 24 13 36 19 S 1003,3 10
22.11.2017 20:00:00 10,3 3,0 24 13 36 19 S 1004,3 10
22.11.2017 19:00:00 10,1 4,1 22 12 - - S 1004,8 10
22.11.2017 18:00:00 10,1 4,4 28 15 47 25 S 1005,2 10
22.11.2017 17:00:00 10,2 4,6 22 12 40 21 S 1005,7 10
22.11.2017 16:00:00 11,2 4,5 26 14 - - S 1006,3 10
22.11.2017 15:00:00 12,0 4,2 26 14 40 21 S 1006,8 10
22.11.2017 14:00:00 12,3 5,3 22 12 40 21 S 1007,3 10
22.11.2017 13:00:00 11,0 5,7 24 13 - - S 1008,1 10
22.11.2017 12:00:00 9,8 6,1 26 14 43 23 SSW 1009,4 10
22.11.2017 11:00:00 9,3 6,3 28 15 40 21 SSW 1009,7 10
22.11.2017 10:00:00 8,5 6,5 28 15 - - SSW 1010,0 10
22.11.2017 09:00:00 8,6 6,2 28 15 43 23 SSW 1010,0 10
22.11.2017 08:00:00 8,8 7,0 26 14 40 21 SSW 1009,8 10
22.11.2017 07:00:00 8,9 7,0 29 16 - - SSW 1009,5 10
22.11.2017 06:00:00 9,2 7,1 26 14 36 19 SSW 1009,9 10
22.11.2017 05:00:00 9,3 7,1 21 11 36 19 SSW 1010,5 10
22.11.2017 04:00:00 9,2 7,0 26 14 - - SSW 1010,6 10
22.11.2017 03:00:00 9,1 6,8 26 14 43 23 SSW 1010,8 10
22.11.2017 02:00:00 9,2 6,9 24 13 36 19 SSW 1011,4 10
22.11.2017 01:00:00 8,9 6,9 24 13 - - SSW 1011,9 10
22.11.2017 00:00:00 9,0 6,9 24 13 47 25 SSW 1011,7 10
21.11.2017 23:00:00 8,8 6,6 24 13 36 19 SSW 1012,1 10
21.11.2017 22:00:00 8,5 6,7 24 13 - - SSW 1012,4 10
21.11.2017 21:00:00 8,5 6,7 24 13 40 21 SSW 1013,0 10
21.11.2017 20:00:00 8,4 6,7 24 13 40 21 SSW 1013,3 10
21.11.2017 19:00:00 8,6 6,5 26 14 - - SSW 1013,8 10
21.11.2017 18:00:00 8,5 6,7 21 11 32 18 SSW 1013,6 10
21.11.2017 17:00:00 8,5 6,7 24 13 40 21 SSW 1013,7 10
21.11.2017 16:00:00 8,7 6,7 24 13 - - SW 1014,1 10
21.11.2017 15:00:00 9,0 6,9 22 12 36 19 SW 1014,3 10
21.11.2017 14:00:00 9,1 7,3 24 13 32 18 SW 1014,7 10
21.11.2017 13:00:00 9,1 7,6 21 11 - - SW 1015,0 10
21.11.2017 12:00:00 8,8 7,8 22 12 43 23 SW 1015,4 7
21.11.2017 11:00:00 8,5 7,9 26 14 43 23 SW 1015,7 1,8
21.11.2017 10:00:00 8,6 8,1 28 15 - - SW 1015,3 1,9
21.11.2017 09:00:00 9,0 8,4 24 13 43 23 SW 1014,9 1,9
21.11.2017 08:00:00 9,1 8,6 26 14 40 21 SW 1014,7 1,9
21.11.2017 07:00:00 9,2 8,7 26 14 - - SW 1014,5 1,9
21.11.2017 06:00:00 9,2 8,7 26 14 40 21 SW 1014,4 2,2
21.11.2017 05:00:00 9,2 8,8 24 13 40 21 SW 1014,6 2,0
21.11.2017 04:00:00 9,4 8,9 24 13 - - SW 1014,6 3,5
21.11.2017 03:00:00 9,3 8,8 24 13 36 19 SW 1014,9 3,5
21.11.2017 02:00:00 9,0 8,5 26 14 36 19 SW 1014,9 2,5
21.11.2017 01:00:00 9,1 8,6 22 12 - - WSW 1015,0 3,5
21.11.2017 00:00:00 9,2 8,6 26 14 40 21 WSW 1015,0 8
20.11.2017 23:00:00 8,9 8,3 28 15 43 23 WSW 1014,8 8
20.11.2017 22:00:00 8,7 8,2 28 15 - - WSW 1015,0 4,2
20.11.2017 21:00:00 8,5 7,8 31 17 47 25 SW 1014,9 3,2
20.11.2017 20:00:00 8,4 7,7 28 15 40 21 SW 1014,9 4,5
20.11.2017 19:00:00 8,4 7,7 24 13 - - SW 1015,0 2,8
20.11.2017 18:00:00 8,3 7,6 26 14 36 19 SW 1015,4 2,5
20.11.2017 17:00:00 7,9 7,3 24 13 36 19 SW 1015,6 2,5
20.11.2017 16:00:00 7,2 6,6 26 14 - - SW 1016,1 3,5
20.11.2017 15:00:00 6,4 5,9 24 13 43 23 SSW 1016,7 3,5
20.11.2017 14:00:00 5,7 5,2 26 14 40 21 SW 1017,9 2,8
20.11.2017 13:00:00 5,2 4,8 22 12 - - SSW 1018,5 2,8
20.11.2017 12:00:00 4,7 4,2 26 14 36 19 SSW 1019,4 2,8
20.11.2017 11:00:00 4,6 2,8 26 14 36 19 SSW 1020,4 9
20.11.2017 10:00:00 3,7 2,1 22 12 - - SSW 1020,7 9
20.11.2017 09:00:00 3,1 1,4 15 8 22 12 SSW 1021,7 10
20.11.2017 08:00:00 2,7 0,9 15 8 25 14 SW 1022,1 10
20.11.2017 07:00:00 2,3 0,8 16 9 - - SSW 1022,1 10
20.11.2017 06:00:00 1,9 0,5 13 7 18 10 SSW 1022,5 10
20.11.2017 05:00:00 1,6 0,4 13 7 18 10 SSW 1023,0 10
20.11.2017 04:00:00 1,4 0,2 11 6 - - SSW 1023,5 10
20.11.2017 03:00:00 1,5 0,3 15 8 18 10 SW 1023,8 10
20.11.2017 02:00:00 1,9 0,6 11 6 14 8 SW 1024,1 10
20.11.2017 01:00:00 2,0 0,4 13 7 - - SW 1024,7 10
20.11.2017 00:00:00 1,7 0,6 11 6 14 8 SW 1025,1 10
19.11.2017 23:00:00 1,9 0,8 11 6 18 10 SW 1025,0 10
19.11.2017 22:00:00 2,4 1,2 13 7 - - WSW 1025,0 10
19.11.2017 21:00:00 2,7 1,6 15 8 22 12 WSW 1024,5 10
19.11.2017 20:00:00 3,0 1,3 13 7 18 10 WSW 1024,4 10
19.11.2017 19:00:00 3,6 1,3 13 7 - - WSW 1023,8 10
19.11.2017 18:00:00 4,4 1,8 13 7 22 12 WSW 1023,3 10
19.11.2017 17:00:00 5,2 2,1 11 6 22 12 WSW 1022,9 10
19.11.2017 16:00:00 6,2 2,0 15 8 - - W 1022,6 10
19.11.2017 15:00:00 6,7 2,1 15 8 25 14 W 1022,5 10
19.11.2017 14:00:00 6,5 2,4 13 7 25 14 W 1022,4 10
19.11.2017 13:00:00 7,1 2,5 13 7 - - W 1022,1 10
19.11.2017 12:00:00 6,4 2,8 13 7 25 14 W 1022,0 10
19.11.2017 11:00:00 4,6 2,3 11 6 25 14 W 1022,0 10
19.11.2017 10:00:00 3,5 1,1 13 7 - - WSW 1021,5 10
19.11.2017 09:00:00 2,6 -0,1 9 5 14 8 W 1021,1 10
19.11.2017 08:00:00 2,3 0,4 9 5 18 10 W 1020,4 10
19.11.2017 07:00:00 2,5 0,8 9 5 - - W 1019,9 10
19.11.2017 06:00:00 3,0 1,2 9 5 14 8 W 1019,5 10
19.11.2017 05:00:00 4,2 1,7 8 4 18 10 W 1019,1 10
19.11.2017 04:00:00 4,8 3,2 9 5 - - W 1018,8 10
19.11.2017 03:00:00 5,4 4,0 8 4 18 10 W 1018,6 10
19.11.2017 02:00:00 5,9 4,8 11 6 22 12 W 1018,3 6
19.11.2017 01:00:00 5,9 5,4 9 5 - - W 1018,4 6
19.11.2017 00:00:00 6,2 5,6 11 6 22 12 W 1018,4 6
18.11.2017 23:00:00 6,5 6,0 11 6 22 12 WSW 1018,5 3,0
18.11.2017 22:00:00 6,4 6,1 13 7 - - WSW 1018,7 3,0
18.11.2017 21:00:00 6,2 5,8 9 5 29 16 W 1019,3 3,0
18.11.2017 20:00:00 5,9 5,4 18 10 29 16 SW 1019,5 4,0
18.11.2017 19:00:00 5,8 5,1 22 12 - - SW 1020,2 6
18.11.2017 18:00:00 5,7 5,1 15 8 22 12 SW 1020,7 4,2
18.11.2017 17:00:00 6,8 3,2 13 7 32 18 WSW 1021,0 10
18.11.2017 16:00:00 6,9 2,6 24 13 - - SW 1021,2 10
18.11.2017 15:00:00 6,8 2,2 26 14 36 19 WSW 1021,5 10

tt = Température de l'air
td = dewpoint
ff = Vitesse du vent
fx = gusts
dd = Direction du vent
ppp = reduced air pressure
vv = visibility

stations d'obs. à proximité